Location: Oroua River
(40.4333°S, 175.4333°E)
Time: 15:33:32
(UTC+00:00)

CZ-2D R/B - Pass Details

Date: 03 February 2023
Orbit: 790 x 845 km, 98.8° (Epoch: 22 March)

Event Time Altitude Azimuth Distance (km) Brightness Sun altitude
Exits shadow 13:09:50 48° 191° (SSW) 1,050 2.9 -32.4°
Drops below altitude 10° 13:13:35 10° 193° (SSW) 2,398 5.3 -32.3°
Sets 13:15:56 0° 193° (SSW) 3,341 6.2 -32.2°
